GFSSGP_850_spd_231.txt.gz
Wind_Speed
13 5 2 1 2 2 2 3 1 4 3 4 8 4 5 3 4 2 13 20 23 19 21 18 17 16 16 17 16 14 12 9 7 9 10 11 12 13 14 15 14 14 13 13 12 11 11 10 10
16 4 2 3 3 1 3 2 5 3 8 15 12 8 2 2 3 7 21 22 23 21 21 20 16 15 14 16 16 14 14 11 7 7 9 12 13 13 13 13 13 13 12 11 11 12 12 11 11
17 4 2 3 3 4 4 4 5 6 14 7 6 3 4 2 6 17 20 28 23 21 21 20 16 11 13 19 17 15 17 11 6 6 9 11 12 12 12 13 12 12 14 16 16 17 17 15 14
12 3 2 2 4 5 4 3 5 13 3 6 8 6 4 5 6 19 27 27 23 22 21 19 15 11 15 20 18 17 18 10 4 5 9 11 11 11 12 12 14 15 16 17 17 16 15 15 14
10 2 2 1 4 4 4 4 16 8 9 8 10 6 4 12 12 19 27 26 24 22 21 19 16 14 17 19 18 20 16 9 3 5 9 10 10 11 12 14 15 15 15 14 13 12 12 11 10
3 3 2 3 4 3 4 7 8 6 7 10 7 12 9 15 15 21 26 25 22 22 22 20 18 16 18 19 20 19 13 7 4 7 9 10 11 12 14 15 14 13 12 11 10 10 10 9 9
4 3 3 3 4 3 4 10 7 9 9 9 10 9 8 20 17 22 26 25 23 22 22 21 20 19 18 18 17 14 10 8 7 9 10 10 11 13 14 14 13 11 10 8 8 7 8 8 8
8 5 2 3 3 6 4 10 9 15 8 8 15 7 6 26 24 26 27 27 24 23 22 21 21 19 18 17 16 14 11 9 10 10 11 11 13 14 14 12 10 8 7 6 6 6 7 9 10
7 3 4 4 4 5 6 4 7 8 9 12 13 5 6 27 29 31 30 28 27 25 24 22 20 19 18 16 15 13 12 11 11 12 11 11 13 13 12 10 8 6 5 4 4 5 7 10 13
6 5 9 7 4 4 8 6 7 7 9 10 14 13 12 30 33 36 35 33 30 30 28 24 21 20 19 16 15 14 13 14 14 12 12 13 14 12 10 8 6 4 2 3 5 6 8 11 14
5 7 6 8 11 6 4 5 7 3 3 16 27 25 21 34 35 35 34 32 33 32 30 27 23 21 18 16 15 15 16 15 14 13 13 13 12 10 8 7 5 2 1 3 7 9 11 14 16
4 8 17 19 23 9 4 4 4 16 16 18 25 26 26 37 37 38 37 33 34 33 31 29 25 22 19 17 16 16 16 15 13 13 13 12 11 10 8 6 4 1 4 7 9 12 14 16 17
8 6 18 25 21 17 17 13 11 12 29 17 17 26 28 35 36 35 34 31 31 33 32 30 26 23 20 19 19 18 17 15 13 13 13 12 11 9 8 5 2 1 4 6 9 14 15 16 14
10 13 22 25 24 13 6 9 8 10 21 21 18 28 30 35 37 37 35 32 32 31 32 30 26 23 20 20 20 19 18 16 14 13 13 12 11 9 7 4 3 2 5 8 10 15 14 14 12
14 15 16 17 15 6 3 11 7 20 17 21 20 27 32 36 36 39 37 34 31 29 29 31 26 23 20 20 20 19 17 16 15 13 13 11 9 7 6 5 4 5 8 9 11 14 14 13 11
5 6 16 8 14 11 12 26 5 17 18 22 25 26 32 37 39 37 35 32 28 26 27 30 27 25 21 20 21 20 17 14 14 13 11 12 10 10 8 6 7 8 9 12 14 12 14 12 12
10 14 14 13 15 8 18 12 14 21 15 21 24 24 30 35 38 38 36 32 28 25 27 29 26 26 22 23 22 19 19 16 13 14 12 10 11 9 9 9 9 10 13 13 13 12 9 9 8
13 14 12 11 3 17 21 16 6 15 20 22 24 24 26 32 40 39 36 33 28 26 27 28 25 27 25 24 23 22 19 18 17 16 12 12 11 11 11 12 15 15 13 10 9 7 8 8 9
13 19 17 8 5 7 15 20 16 14 15 17 20 24 29 33 33 37 36 33 30 28 29 28 29 29 27 26 25 22 22 20 19 17 16 16 13 15 16 16 15 13 10 7 4 2 4 7 9
9 13 23 18 8 3 12 13 10 16 21 21 24 25 29 26 29 36 37 36 34 30 28 30 30 29 27 26 24 23 22 20 21 19 18 18 17 17 16 14 12 7 4 1 1 6 11 13 10
13 13 8 15 7 8 6 11 14 14 20 21 24 27 27 32 33 37 39 39 36 33 31 31 30 29 29 27 25 26 25 24 23 21 20 20 19 15 13 8 5 2 4 7 11 13 7 3 2
14 8 15 14 12 18 11 12 9 18 23 10 21 26 31 32 33 36 39 40 39 36 32 33 32 31 31 30 29 28 28 29 27 24 22 18 15 12 7 4 5 7 10 12 4 3 3 3 3
8 10 10 13 11 6 9 6 6 7 16 23 16 27 27 31 35 39 42 39 39 35 34 33 33 32 31 32 32 32 32 32 28 25 21 18 13 7 9 7 7 7 2 4 5 5 5 6 6
6 9 9 11 7 7 14 11 7 12 19 20 24 26 36 37 32 36 41 37 37 35 34 34 35 35 35 36 36 37 36 35 30 25 19 11 11 7 5 0 5 4 4 5 5 7 7 7 7
8 6 4 6 6 5 6 14 16 8 17 23 26 35 32 39 38 36 39 40 38 37 35 35 35 38 37 38 39 37 29 26 24 16 17 14 8 7 7 6 5 4 4 5 7 7 8 8 8
1 9 7 7 3 1 6 8 5 5 11 23 38 30 36 38 37 34 38 39 36 37 38 37 37 36 36 32 24 20 20 18 19 18 15 10 9 9 7 6 5 4 6 7 7 7 7 8 9
4 9 7 2 1 3 4 4 6 8 7 9 23 31 33 36 37 38 42 40 38 36 35 35 36 34 28 25 22 23 25 24 21 16 13 12 10 8 6 6 5 5 6 6 6 7 8 9 10
5 7 3 4 5 4 3 3 3 11 11 11 16 23 28 33 36 39 42 39 36 35 34 32 28 29 27 24 26 26 24 20 17 16 14 12 10 7 6 6 5 4 5 5 6 7 8 9 10
5 3 5 3 3 3 2 1 2 10 13 4 9 20 28 33 36 37 35 33 33 31 30 28 27 27 30 29 29 25 23 20 18 15 15 12 10 8 6 5 4 3 5 5 6 7 8 9 9
4 5 4 3 4 1 3 1 7 13 7 9 10 16 24 29 32 34 32 30 29 25 25 24 29 28 29 27 27 26 23 20 18 17 15 14 10 9 7 5 4 4 4 5 6 7 7 8 8

GFSSGP_850_spd_234.txt.gz
Wind_Speed
14 10 3 2 5 5 9 5 3 8 8 6 13 5 4 2 2 2 10 18 21 21 21 20 17 17 20 19 15 12 10 8 6 8 10 12 12 13 13 13 12 12 12 11 10 10 9 9 9
13 9 3 3 6 8 8 4 8 7 7 12 11 7 5 2 3 4 16 22 23 22 22 22 19 18 19 19 16 14 11 8 6 7 10 11 12 12 13 12 12 11 11 11 11 11 11 11 10
11 7 3 3 5 10 6 6 6 2 12 9 8 4 4 3 6 11 16 26 24 22 19 22 20 19 19 19 16 15 14 8 5 8 10 11 11 12 12 12 12 13 14 14 14 15 14 13 12
6 2 2 5 10 9 7 3 5 10 5 7 5 5 3 7 6 14 25 28 23 20 20 21 19 16 19 20 18 17 16 9 4 7 10 11 11 11 11 12 13 15 15 14 13 13 13 12 11
4 2 5 6 12 6 7 7 8 12 6 9 9 5 3 6 10 19 29 27 25 20 20 21 17 16 20 22 19 19 17 9 4 7 9 10 11 11 12 13 14 14 13 12 11 10 10 9 8
4 2 6 11 14 6 8 7 8 13 9 6 6 7 5 9 15 24 28 26 25 21 21 20 17 18 22 23 20 22 17 10 5 8 10 10 11 12 14 14 13 12 10 9 8 8 8 8 8
8 6 9 11 11 8 8 6 11 14 12 9 2 7 4 14 18 26 26 24 25 21 22 20 18 20 22 22 23 22 15 9 6 9 11 11 12 13 14 13 12 10 8 7 6 5 6 7 8
5 5 10 10 12 14 3 4 5 15 12 4 8 6 5 20 23 26 24 22 26 24 22 22 22 20 22 23 22 19 13 9 9 12 12 12 13 14 13 12 10 8 6 4 3 3 5 8 11
6 8 12 17 15 11 4 5 3 5 7 8 10 4 6 23 28 29 26 23 28 27 23 24 25 24 24 23 21 17 14 12 13 14 13 13 15 15 13 11 8 6 4 2 2 4 6 9 13
13 13 20 12 15 10 6 6 6 5 9 9 9 14 9 26 32 34 31 29 31 31 26 26 25 25 23 22 20 18 16 15 16 15 14 15 16 14 12 10 8 5 2 1 3 5 7 10 12
8 17 17 16 15 10 6 6 5 9 8 17 18 17 19 30 32 30 29 27 32 31 31 28 26 24 23 22 20 19 18 18 17 16 16 16 16 14 12 10 6 3 1 3 5 7 9 11 13
13 14 19 21 15 9 10 6 6 12 21 12 11 17 22 33 35 35 30 29 32 34 33 31 27 25 23 21 19 18 18 19 18 17 16 16 16 14 11 8 6 4 2 3 7 10 12 12 11
17 17 17 20 23 24 25 21 19 15 19 19 15 12 26 31 31 30 27 25 27 31 35 33 29 26 23 21 20 20 20 19 19 17 17 17 16 14 11 10 8 4 2 3 6 10 12 12 12
10 14 15 19 24 23 19 23 22 18 20 17 18 18 25 30 32 30 30 28 30 32 36 34 31 27 24 21 20 20 20 19 18 16 17 17 15 14 12 9 6 3 4 6 7 10 11 11 11
14 18 19 21 16 15 19 27 28 21 19 12 16 18 23 27 29 33 31 30 31 31 35 36 31 28 25 22 21 22 21 19 15 15 15 15 12 11 10 6 5 5 5 7 10 12 10 10 9
8 13 17 13 23 19 13 26 21 29 23 22 19 18 22 28 34 29 27 28 28 29 34 34 33 29 24 23 24 24 22 19 17 14 14 15 13 12 10 8 6 7 8 10 12 12 9 8 7
11 15 17 15 18 15 24 23 17 22 20 24 23 21 23 24 29 34 31 32 29 29 31 33 33 29 26 24 24 25 23 19 17 16 13 11 11 11 11 9 9 10 12 13 11 9 7 6 3
10 14 17 20 14 9 24 26 21 21 29 28 24 23 23 26 33 35 34 34 30 29 28 30 34 31 29 26 28 25 21 19 18 17 15 13 10 12 12 12 13 15 14 12 10 7 3 1 1
18 19 21 18 13 13 14 15 14 21 26 29 32 26 25 28 24 27 29 32 32 29 29 31 35 32 33 30 29 27 24 22 20 19 18 16 14 15 16 17 16 14 11 9 4 0 2 6 7
18 18 19 16 19 21 21 26 18 16 19 27 29 30 27 24 27 32 31 32 35 34 31 32 35 34 34 29 29 27 26 23 23 22 22 20 20 19 18 17 15 11 7 5 7 7 10 13 10
18 19 18 13 15 21 16 25 23 18 28 29 34 32 30 30 31 33 32 37 36 36 35 35 37 34 33 32 29 29 26 26 25 26 25 23 21 20 18 15 11 8 8 8 10 13 9 5 3
16 16 17 18 11 10 8 20 25 22 23 26 34 38 33 28 29 33 33 33 40 40 36 36 37 35 34 32 33 30 29 30 30 29 27 25 22 18 14 10 9 7 6 8 4 1 2 2 1
11 13 15 16 15 13 16 11 15 19 25 24 25 40 40 32 33 36 38 40 40 40 40 38 36 37 34 34 34 33 34 33 32 31 28 24 20 15 12 9 5 6 2 3 3 3 4 3 2
10 9 12 15 13 13 20 15 21 17 24 24 24 35 36 32 33 31 36 40 42 44 41 39 38 38 36 35 37 40 36 36 36 32 26 22 19 14 12 7 5 5 6 5 5 4 4 4 3
11 8 4 6 7 12 16 16 25 17 25 27 25 32 34 31 35 40 41 42 44 43 42 39 38 36 37 37 39 37 39 40 36 32 25 16 14 12 9 9 9 8 7 5 5 4 4 4 4
8 6 5 8 9 12 9 6 8 3 12 22 26 37 47 45 43 41 38 42 45 41 44 41 39 38 39 40 41 41 41 34 27 20 21 20 15 14 12 9 9 8 7 5 5 4 3 4 4
3 6 4 6 15 11 10 11 10 4 5 11 21 29 35 40 42 46 41 41 42 48 43 39 39 39 40 40 39 35 26 26 28 28 22 17 16 13 11 11 9 8 7 6 5 4 3 4 5
5 3 5 4 6 12 9 8 9 11 16 14 16 25 27 33 33 45 47 39 45 45 39 36 38 38 36 32 30 28 26 29 30 26 22 20 15 13 13 11 10 8 6 5 4 3 4 5 6
3 4 4 4 7 5 7 4 2 9 13 16 10 17 26 31 35 40 44 49 46 41 33 37 33 32 29 25 24 28 32 30 26 25 21 17 17 15 13 11 8 6 5 3 3 3 5 6 7
3 9 5 5 4 5 2 3 5 9 12 12 5 3 20 30 35 41 43 43 40 36 37 33 31 28 28 32 32 33 32 27 25 20 18 17 16 15 12 9 7 5 3 2 3 4 5 7 8

GFSSGP_850_spd_237.txt.gz
Wind_Speed
11 8 3 3 6 6 13 9 11 3 4 5 10 4 2 5 2 2 13 13 19 21 21 22 20 18 21 18 14 10 8 5 6 8 9 11 11 11 11 11 11 13 11 9 9 9 9 9 9
9 7 3 5 7 11 11 11 7 8 5 6 8 3 4 4 5 10 16 20 21 20 19 21 21 20 24 20 15 11 9 6 6 8 9 10 11 11 11 11 11 10 9 9 10 11 11 11 11
8 5 6 5 11 13 10 3 10 6 4 7 5 5 1 4 5 13 7 22 21 20 18 20 20 22 24 20 16 14 10 6 6 8 9 10 10 10 10 10 10 12 12 13 13 13 13 12 11
3 5 6 8 15 13 18 2 12 5 6 6 6 5 2 2 8 10 18 23 21 19 18 20 20 22 22 21 18 16 13 7 6 8 9 10 10 10 10 11 12 13 13 12 12 12 11 10 9
5 7 10 13 19 18 6 15 9 10 11 9 8 7 2 4 6 12 22 22 22 19 18 22 21 20 20 21 19 18 15 8 5 9 10 10 10 10 11 12 12 11 11 10 9 9 9 8 8
11 8 10 14 17 17 12 16 10 12 14 7 7 9 3 5 11 17 21 20 19 19 17 19 20 19 22 21 20 20 17 10 5 8 10 11 10 11 12 12 11 10 8 8 7 7 7 8 9
13 10 15 18 17 16 9 8 13 13 16 12 6 9 5 10 13 20 20 20 20 18 17 17 17 18 21 23 22 20 18 11 6 9 10 10 11 12 12 12 10 9 7 5 5 5 6 9 11
13 11 19 17 16 20 16 6 9 11 15 3 5 6 7 15 18 21 20 18 20 19 18 17 18 19 23 23 22 21 18 11 8 10 11 11 12 13 12 11 9 7 5 3 3 4 6 9 12
9 10 16 21 18 16 12 11 11 5 11 5 8 5 2 18 21 22 22 19 24 20 20 18 19 20 22 22 23 22 16 12 10 12 12 12 12 13 12 10 8 5 3 1 3 4 6 10 12
14 13 23 18 17 18 19 15 15 6 13 17 12 9 5 19 24 26 26 25 25 24 22 22 19 20 22 24 24 21 18 14 13 14 14 13 12 12 11 10 7 5 2 1 4 5 6 8 6
15 20 18 19 21 18 21 17 16 12 14 15 19 16 15 19 23 25 26 25 24 26 22 23 23 20 17 18 23 18 17 14 14 16 16 14 14 14 10 8 6 3 1 4 5 6 8 9 8
22 22 20 24 25 18 20 21 21 18 18 7 10 11 20 23 28 29 27 26 25 26 25 23 22 21 20 21 19 15 14 14 14 15 16 15 14 13 9 7 6 5 6 3 3 6 9 9 9
20 17 24 23 26 26 25 26 21 23 17 15 11 9 22 24 27 27 25 24 25 28 29 25 23 22 21 19 18 16 15 16 13 14 15 11 10 10 9 9 9 8 4 2 5 7 9 8 8
15 18 19 18 23 28 25 28 29 32 26 25 18 15 20 25 28 25 28 28 28 29 34 32 24 21 20 20 17 16 15 15 15 13 13 13 11 11 11 10 11 6 3 4 6 8 9 8 6
18 19 20 23 20 22 22 26 29 30 28 28 19 19 21 25 25 32 30 29 28 28 31 36 29 22 20 19 19 15 15 18 16 16 14 14 14 16 16 11 7 6 5 7 8 8 8 6 6
17 18 18 15 25 25 18 34 22 29 33 31 31 23 21 25 31 28 27 27 26 28 30 37 35 26 22 20 19 15 16 16 15 14 14 19 19 14 14 12 8 8 8 11 11 10 7 5 4
11 13 17 17 20 17 26 33 21 24 25 35 35 31 25 24 25 27 29 29 28 27 29 34 37 31 26 22 19 17 19 21 23 20 17 17 17 16 14 12 11 11 14 13 11 9 7 8 7
11 13 16 17 16 19 20 27 24 32 28 32 33 31 33 26 27 29 30 31 29 29 28 33 37 32 27 25 22 26 26 25 21 18 17 16 14 14 14 14 14 15 15 13 10 7 5 5 5
16 18 22 19 19 20 21 23 19 24 23 21 31 34 35 28 25 28 32 31 33 31 30 34 37 35 31 31 31 31 30 25 22 21 20 18 16 14 17 17 17 16 14 11 8 5 4 4 5
15 18 20 19 18 21 24 28 25 24 29 25 24 32 33 30 27 28 32 39 38 37 36 34 33 38 35 34 33 30 31 28 25 23 23 22 21 20 20 19 18 15 11 8 6 6 7 7 8
15 16 18 21 18 22 22 32 29 27 35 34 33 31 32 29 29 29 32 38 38 37 37 34 35 38 37 35 32 34 32 29 27 25 26 25 24 23 21 19 16 13 10 9 8 8 10 6 4
16 15 15 17 15 12 11 12 16 16 26 29 33 34 36 33 29 32 32 36 38 38 37 36 38 40 39 37 38 33 33 30 30 29 29 28 27 24 21 16 13 11 8 5 5 2 2 3 3
13 12 14 16 16 17 19 13 7 18 26 24 26 35 38 39 36 30 36 36 39 40 40 40 40 39 38 39 34 30 33 34 31 33 32 29 27 23 19 16 12 8 5 4 3 3 2 2 1
13 14 16 16 13 14 16 16 17 17 21 17 17 35 31 40 42 34 38 36 38 40 40 40 39 39 39 35 35 35 35 35 34 34 32 30 27 21 18 14 11 11 11 7 3 3 3 3 2
9 10 5 4 6 10 12 14 24 13 20 23 24 29 34 37 40 42 40 39 39 41 43 41 42 43 41 37 38 40 38 39 38 35 35 32 25 21 17 14 13 12 8 8 7 5 4 3 3
17 5 4 8 8 12 18 8 13 11 9 14 16 26 23 34 36 40 43 43 47 50 48 49 47 41 40 40 38 38 41 42 39 35 31 25 20 20 16 16 14 11 11 9 7 5 4 4 4
0 5 1 7 18 12 8 15 22 19 7 9 15 20 25 25 33 36 45 48 52 53 52 49 45 40 38 37 38 40 40 38 34 30 26 24 23 20 18 17 13 14 11 8 6 5 4 4 4
7 5 5 3 5 8 8 14 12 10 15 18 17 19 22 29 31 39 42 48 51 49 48 45 40 39 38 37 38 38 35 28 27 27 28 26 23 20 18 15 14 12 10 8 6 5 4 4 4
4 2 4 5 5 5 7 6 6 15 17 20 20 27 24 27 25 33 35 39 44 47 46 42 41 37 35 33 34 31 28 33 32 32 28 24 21 18 16 14 13 11 9 7 5 4 3 3 4
4 6 8 5 6 7 9 10 9 13 17 14 20 16 16 13 29 34 36 39 40 44 45 43 40 36 33 28 25 29 31 34 33 30 26 24 21 18 17 15 12 10 7 5 4 3 3 4 5

GFSSGP_850_spd_240.txt.gz
Wind_Speed
8 5 8 4 3 4 10 12 10 7 4 10 7 5 7 15 6 2 18 11 22 22 26 24 21 18 18 15 12 10 7 8 9 11 13 14 13 11 11 12 15 13 11 11 11 11 11 13 13
5 5 5 6 3 7 8 13 3 6 14 9 8 3 2 5 6 15 21 17 21 21 26 24 21 20 21 16 12 10 8 7 9 10 11 13 12 11 11 13 12 10 11 12 14 14 13 13 14
8 6 5 3 5 9 9 12 7 13 7 9 2 3 6 4 7 17 6 23 23 19 21 23 22 22 23 18 14 11 9 7 8 10 10 11 12 11 11 11 12 12 14 15 15 15 14 13 12
7 7 7 4 9 12 17 6 14 6 4 2 4 5 6 8 7 11 18 22 22 18 17 19 22 24 23 19 15 12 11 6 8 10 11 11 11 11 10 12 14 14 14 14 13 12 12 12 11
8 8 5 7 13 13 14 3 12 6 6 8 6 4 7 6 9 10 24 23 22 17 19 19 22 25 25 20 17 15 11 6 7 9 11 10 10 10 11 13 13 13 12 11 11 11 11 11 11
5 8 7 10 14 12 13 12 6 11 14 13 8 8 6 6 9 16 22 21 19 20 17 20 22 23 23 21 18 16 14 8 7 9 10 10 10 11 12 13 12 11 10 9 9 9 9 11 12
5 6 10 12 11 11 9 13 4 7 15 13 8 1 7 10 11 21 21 20 19 19 18 22 22 22 21 21 20 18 16 10 7 10 12 11 11 13 13 12 10 9 8 7 7 7 8 10 12
12 6 12 12 12 14 11 4 6 6 11 5 5 2 6 15 14 21 20 22 19 18 17 18 20 21 23 24 22 19 19 13 8 9 11 10 11 12 12 11 9 7 6 6 5 6 8 9 12
9 5 11 16 14 13 12 11 11 6 9 6 5 1 5 15 20 22 22 22 22 20 16 19 18 18 23 25 24 21 21 15 10 10 10 11 12 13 12 11 8 6 5 4 5 6 6 7 11
10 8 14 12 11 12 14 18 13 6 11 12 9 9 10 16 24 26 26 24 28 23 19 18 20 22 25 26 24 22 23 16 12 12 13 12 12 13 13 9 8 5 4 3 4 3 5 6 4
12 15 13 18 20 21 17 16 15 10 7 12 16 18 17 21 23 28 29 26 28 25 24 17 20 23 24 25 23 27 23 16 14 14 15 15 13 13 10 9 6 4 3 2 2 3 5 4 3
19 21 20 19 21 24 14 22 17 16 16 16 6 11 23 24 24 31 30 28 27 30 26 25 20 20 22 24 27 26 21 17 16 16 18 17 16 14 10 6 4 6 7 5 6 2 3 3 3
14 13 21 23 20 22 24 20 18 23 23 18 17 12 18 24 23 27 28 28 29 28 32 28 29 23 21 23 26 22 19 19 17 17 18 17 15 15 12 14 13 12 10 7 6 3 4 3 3
16 21 21 20 20 18 18 22 23 26 29 28 23 14 15 24 25 23 31 30 31 29 36 32 28 29 27 25 22 20 20 18 16 16 18 14 14 13 16 16 15 13 9 8 6 6 6 7 5
16 15 15 17 18 12 18 25 26 26 30 29 31 29 22 25 29 27 31 34 32 30 29 37 30 28 28 29 25 22 19 17 17 15 14 18 15 16 19 17 15 12 8 8 7 6 6 7 6
8 9 5 4 14 19 15 27 6 31 35 35 32 31 27 28 30 32 30 34 34 35 35 35 34 31 29 28 28 26 22 20 21 18 17 19 21 19 17 16 10 9 10 10 10 8 6 7 9
6 5 11 11 8 9 20 19 12 24 28 28 36 36 31 29 30 32 32 35 34 35 36 35 38 33 30 28 27 25 22 22 22 21 22 22 22 20 19 16 14 12 13 14 12 10 10 9 8
12 14 15 15 13 21 19 20 14 19 24 30 29 28 34 32 36 34 34 38 38 34 37 35 38 36 31 30 25 27 28 27 26 26 26 22 22 20 18 17 16 17 17 14 12 10 10 8 7
13 13 14 14 14 18 20 23 19 23 29 26 26 24 24 32 34 34 35 37 34 36 37 37 35 42 36 34 35 34 34 30 28 29 26 22 21 19 18 18 19 18 16 13 11 10 9 8 7
12 14 14 13 10 13 16 25 21 19 26 31 29 28 27 27 25 35 38 37 36 40 38 39 36 44 41 38 39 37 35 31 30 29 26 21 18 18 20 20 21 18 15 13 11 10 8 7 8
11 14 13 16 15 12 15 25 22 20 31 34 37 31 32 31 29 19 42 40 39 41 43 43 41 44 45 42 41 39 37 33 33 32 29 25 24 25 23 21 21 18 15 13 12 10 9 9 7
11 8 12 14 11 3 7 10 16 20 19 21 35 37 34 34 32 25 33 40 40 43 41 45 41 41 45 46 44 42 38 38 36 32 31 28 27 26 24 22 20 17 16 13 10 7 6 7 7
7 10 12 14 12 12 10 6 5 5 9 14 14 28 41 35 38 37 27 39 38 37 44 45 40 40 47 47 46 38 34 35 36 33 31 29 28 26 24 23 21 18 14 11 11 9 6 4 3
15 13 15 14 8 5 15 9 6 4 9 13 17 23 37 41 41 40 30 34 38 34 41 46 41 43 47 48 44 37 37 36 36 34 32 30 27 26 24 22 19 15 15 16 12 9 6 2 3
6 9 4 4 2 5 7 5 15 24 24 20 19 23 25 27 42 44 43 39 41 37 41 41 42 48 47 47 42 37 36 33 34 34 34 32 30 27 25 21 18 17 15 14 13 8 7 6 5
14 0 5 5 3 12 12 7 7 14 13 12 12 21 25 22 17 29 42 42 45 42 42 45 46 47 48 44 42 38 37 36 36 35 34 33 30 27 23 23 21 19 16 13 10 9 7 7 6
4 3 6 5 9 7 4 7 9 15 17 20 26 29 25 27 28 30 22 46 45 46 45 49 49 50 50 46 44 40 39 38 37 36 34 32 28 26 25 23 20 16 16 12 10 9 8 7 5
4 6 4 2 5 5 4 10 5 17 20 24 22 24 27 30 33 35 26 45 43 44 46 48 53 56 52 46 43 40 39 36 35 32 31 30 29 27 25 21 21 17 15 14 11 9 8 6 6
3 2 2 4 4 3 5 5 6 11 14 19 22 28 26 28 34 35 23 32 40 44 45 51 52 55 51 45 43 39 36 32 28 30 33 31 30 28 22 20 18 16 16 13 11 8 6 5 5
4 4 8 4 4 6 7 7 2 14 18 21 23 27 27 22 25 18 27 36 40 43 45 50 51 50 47 44 39 35 30 28 34 37 35 32 27 20 23 19 18 17 14 11 9 7 5 4 4

GFSSGP_850_spd_246.txt.gz
Wind_Speed
12 5 5 3 2 3 3 6 3 4 5 6 4 5 8 4 4 4 7 20 20 27 30 27 23 21 21 18 13 12 16 17 19 19 19 18 18 17 18 16 14 15 15 15 17 18 19 19 19
12 7 2 2 3 2 5 5 4 2 2 2 2 11 3 2 4 8 19 18 16 26 31 28 24 23 21 18 13 12 16 18 17 19 17 18 18 18 16 15 14 15 17 19 19 18 18 17 16
10 9 2 3 3 5 5 4 2 3 2 1 2 4 4 8 8 14 8 16 19 25 30 29 25 23 20 18 15 12 13 17 18 17 17 16 16 17 14 14 17 19 19 19 18 16 15 14 14
6 2 3 2 7 7 8 6 5 5 1 3 5 3 3 5 12 13 10 16 18 23 30 29 25 23 21 18 16 13 13 15 17 18 17 17 17 15 16 19 17 18 17 17 16 14 13 12 12
5 2 1 4 6 6 5 6 10 5 3 4 4 5 5 11 9 12 12 17 19 24 30 29 26 23 23 19 17 14 12 14 18 18 17 17 15 16 17 18 18 17 17 16 14 13 12 11 12
3 1 1 5 6 7 7 16 11 9 10 4 6 10 8 11 13 14 15 20 19 25 30 30 28 26 23 21 18 16 12 13 16 18 18 17 15 17 19 18 17 17 15 14 12 11 10 10 12
3 2 4 5 5 5 6 8 4 13 10 7 8 6 4 15 14 16 21 20 19 23 29 31 29 28 27 24 21 19 15 12 13 17 18 15 15 17 18 17 16 15 13 11 10 9 9 10 10
4 3 3 4 8 10 8 4 15 7 9 7 11 6 6 21 19 24 23 21 21 22 26 28 30 30 31 27 24 20 17 14 12 16 16 16 17 18 18 16 15 14 12 10 9 8 8 9 9
3 3 5 7 8 9 12 4 11 12 9 5 6 7 7 18 26 30 28 25 23 24 25 24 29 32 33 30 26 23 19 17 13 13 15 17 18 20 19 16 14 13 11 9 8 7 6 6 8
4 4 6 4 5 5 11 5 14 6 10 5 6 9 9 23 30 34 34 34 31 31 29 25 29 33 36 32 28 26 23 21 17 13 16 18 19 19 18 17 15 13 11 9 7 7 6 4 5
4 5 5 11 16 17 15 18 15 4 6 12 13 18 19 27 32 35 35 35 33 33 31 29 31 34 36 35 33 30 27 24 21 16 16 17 19 20 20 18 16 14 12 9 7 5 5 5 4
6 7 6 8 16 16 10 16 12 15 13 23 16 19 24 31 34 36 38 38 37 35 33 29 31 36 36 35 36 34 31 27 25 19 18 20 21 22 20 18 17 15 13 11 8 5 4 5 5
2 8 20 21 20 20 20 12 13 24 20 23 20 14 25 30 33 34 36 39 37 36 34 31 30 36 37 38 37 36 35 33 28 26 23 21 22 22 21 20 18 17 13 11 9 6 7 7 7
13 14 18 17 25 18 14 17 7 4 15 20 20 14 21 31 32 34 37 39 40 38 35 33 31 35 34 33 34 36 34 33 32 26 25 23 22 22 22 22 20 18 16 13 11 10 9 9 8
12 6 8 4 12 6 22 13 19 22 25 31 32 24 23 25 29 37 32 36 39 42 39 37 34 35 34 34 35 36 34 32 34 29 25 26 25 23 25 23 21 18 18 15 16 14 11 11 11
5 3 6 11 9 8 11 11 18 13 23 23 26 23 25 25 28 32 34 36 35 38 42 40 38 37 39 38 35 35 34 33 33 30 27 28 26 25 29 24 22 21 20 18 19 16 14 12 12
5 5 9 8 12 5 2 12 9 34 26 24 27 31 25 16 22 30 31 37 37 40 40 43 42 40 38 38 36 34 34 35 34 28 29 28 28 29 27 25 27 25 23 22 20 17 15 14 13
8 7 5 10 7 18 17 24 10 22 30 31 31 29 29 33 28 15 27 35 39 42 43 44 45 43 40 37 36 34 33 33 30 28 28 28 31 31 27 28 28 27 24 23 21 18 17 15 14
6 6 10 14 14 9 13 25 21 24 28 29 30 32 33 30 33 28 21 27 41 41 45 48 49 48 45 43 40 37 37 33 30 29 28 26 30 30 30 31 30 29 27 25 22 20 20 19 18
8 9 9 10 7 11 16 23 24 22 24 29 29 29 29 34 37 36 29 22 34 45 44 46 52 52 49 45 42 40 39 37 33 33 32 31 31 29 31 31 29 30 27 24 24 23 25 23 20
6 5 6 13 15 11 10 10 7 13 11 18 20 28 30 31 34 39 35 24 25 41 47 48 49 55 52 48 46 43 40 38 37 39 38 35 33 31 32 31 31 29 28 26 26 27 27 28 27
6 5 12 17 11 6 6 7 13 9 9 6 15 21 24 23 26 29 33 30 25 33 46 48 50 56 54 52 49 48 46 47 45 45 41 39 35 34 32 31 29 29 28 27 27 27 28 27 29
10 11 15 16 15 7 3 3 9 4 5 7 8 21 27 25 20 17 21 33 33 30 38 49 50 54 58 56 50 50 47 46 45 45 40 39 36 34 34 30 30 30 31 29 28 28 26 23 22
8 9 15 2 1 3 4 4 9 2 3 5 10 17 22 31 29 24 20 14 30 33 35 45 51 53 55 53 50 50 50 48 47 47 43 39 35 34 33 30 29 29 30 28 28 26 22 19 14
10 4 4 6 3 6 2 2 10 1 2 5 9 22 27 24 33 31 25 13 20 32 37 40 49 51 52 53 49 49 51 47 48 46 45 40 35 35 31 30 29 29 28 28 26 21 16 17 14
5 2 3 5 3 12 8 6 5 4 2 11 18 21 27 35 32 33 30 20 10 17 28 41 44 47 50 49 49 49 48 47 47 46 44 41 38 35 32 30 28 28 27 22 18 17 15 18 16
5 2 7 5 3 4 3 6 3 5 14 26 32 34 34 33 36 36 34 27 18 17 24 32 41 45 49 45 47 47 47 46 48 48 44 41 39 35 31 29 28 24 21 21 22 19 19 15 13
4 2 4 3 5 5 4 5 5 11 18 19 23 29 34 35 34 36 35 29 24 19 22 29 40 44 47 46 46 48 46 45 47 48 44 42 36 32 31 28 25 25 24 20 21 21 17 13 14
5 4 2 3 4 4 6 4 3 9 21 21 23 32 36 36 34 32 35 29 26 22 26 34 39 43 45 42 46 48 47 48 47 47 42 40 36 33 30 30 30 25 26 25 18 16 16 14 13
4 1 1 3 4 5 5 7 5 20 18 22 29 32 34 34 33 29 28 27 19 17 21 30 39 43 42 43 44 45 46 47 47 45 41 37 35 35 34 30 28 28 26 20 17 16 14 11 9